McConnell AFB, KS

7:52 PM CDT on October 17, 2017 (GMT -0500)
McConnell Air Force Base

Weather History for KIAB - November, 2012

Change the Weather History Date:

Wednesday, November 21, 2012

  Actual Average Record
Temperature  
Mean Temperature 58 °F -  
Max Temperature 72 °F 51 °F 72 °F (2010)
Min Temperature 44 °F 32 °F 19 °F (2008)
Degree Days  
Heating Degree Days 7    
Growing Degree Days 8 (Base 50)    
Moisture  
Dew Point 44 °F    
Average Humidity 60    
Maximum Humidity 84    
Minimum Humidity 38    
Precipitation  
Precipitation 0.00 in - - ()
Sea Level Pressure  
Sea Level Pressure 30.11 in    
Wind  
Wind Speed 13 mph (SSE)    
Max Wind Speed 26 mph    
Max Gust Speed 31 mph    
Visibility 10 miles    
Events      
Averages and records for this station are not official NWS values.
T = Trace of Precipitation, MM = Missing Value Source: NWS Daily Summary

Daily Weather History Graph

Daily Weather History Graph

Search for Another Location

Airport or City:

Trip Planner

Search our weather history database for the weather conditions in past years. The results will help you decide how hot, cold, wet, or windy it might be!

Date:

Astronomy

Nov. 21, 2012 Rise Set
Actual Time 7:15 AM CST 5:14 PM CST
Civil Twilight 6:47 AM CST 5:42 PM CST
Nautical Twilight 6:15 AM CST 6:14 PM CST
Astronomical Twilight 5:44 AM CST 6:45 PM CST
Moon 1:24 PM CST (11/21) 12:43 AM CST (11/21)
Length of Visible Light 10h 54m
Length of Day
9h 58m
First Quarter, 62% of the Moon is Illuminated
Nov 21
First Quarter
Nov 28
Full
Dec 6
Last Quarter
Dec 13
New
Dec 19
First Quarter

Hourly Weather History & Observations

Time (CST) Temp. Windchill Dew Point Humidity Pressure Visibility Wind Dir Wind Speed Gust Speed Precip Events Conditions
12:55 AM 48.2 °F - 38.1 °F 68% 30.20 in 10.0 mi SSE 6.9 mph - N/A   Clear
1:55 AM 47.7 °F - 38.7 °F 71% 30.20 in 10.0 mi SSE 8.1 mph - N/A   Clear
2:55 AM 45.7 °F 42.0 °F 38.3 °F 75% 30.20 in 10.0 mi SSE 6.9 mph - N/A   Clear
3:55 AM 45.5 °F 40.8 °F 39.0 °F 78% 30.19 in 10.0 mi SSE 9.2 mph - N/A   Clear
4:55 AM 44.6 °F 40.7 °F 39.4 °F 82% 30.19 in 10.0 mi SSE 6.9 mph - N/A   Clear
5:55 AM 44.6 °F 40.7 °F 39.6 °F 82% 30.21 in 10.0 mi SSE 6.9 mph - N/A   Clear
6:55 AM 44.6 °F 39.7 °F 39.9 °F 84% 30.22 in 10.0 mi SSE 9.2 mph - N/A   Clear
7:55 AM 45.9 °F 40.8 °F 41.4 °F 84% 30.22 in 10.0 mi South 10.4 mph - N/A   Clear
8:55 AM 52.2 °F - 43.0 °F 71% 30.22 in 10.0 mi SSE 12.7 mph - N/A   Clear
9:55 AM 57.7 °F - 42.8 °F 57% 30.21 in 10.0 mi South 16.1 mph - N/A   Clear
10:55 AM 62.8 °F - 45.9 °F 54% 30.19 in 10.0 mi South 21.9 mph - N/A   Clear
11:55 AM 67.8 °F - 48.7 °F 50% 30.16 in 10.0 mi South 24.2 mph 27.6 mph N/A   Clear
12:55 PM 70.2 °F - 49.5 °F 48% 30.12 in 10.0 mi South 19.6 mph 28.8 mph N/A   Clear
1:55 PM 72.7 °F - 48.9 °F 43% 30.08 in 10.0 mi South 20.7 mph 27.6 mph N/A   Clear
2:55 PM 72.5 °F - 47.7 °F 41% 30.05 in 10.0 mi South 24.2 mph 31.1 mph N/A   Clear
3:55 PM 72.1 °F - 45.5 °F 38% 30.03 in 10.0 mi South 26.5 mph 31.1 mph N/A   Clear
4:55 PM 69.6 °F - 46.0 °F 43% 30.02 in 10.0 mi South 19.6 mph 27.6 mph N/A   Clear
5:55 PM 66.9 °F - 46.6 °F 48% 30.01 in 10.0 mi SSE 18.4 mph - N/A   Clear
6:55 PM 64.6 °F - 45.9 °F 51% 30.01 in 10.0 mi South 15.0 mph - N/A   Clear
7:55 PM 63.3 °F - 45.0 °F 51% 30.00 in 10.0 mi SSE 16.1 mph - N/A   Clear
8:55 PM 63.1 °F - 45.0 °F 51% 29.99 in 10.0 mi South 21.9 mph 28.8 mph N/A   Clear
9:55 PM 61.7 °F - 45.1 °F 55% 29.98 in 10.0 mi SSE 18.4 mph - N/A   Clear
10:55 PM 62.4 °F - 45.5 °F 54% 29.95 in 10.0 mi SSE 20.7 mph - N/A   Clear
11:55 PM 61.3 °F - 45.3 °F 56% 29.94 in 10.0 mi SSE 17.3 mph - N/A   Clear